CW6888 Weather Reports


Display with metric or nautical units.
time (UTC)temp
F
wind
direction
speed
MPH
gust
MPH
rain 1hr
in
rain 24hr
in
rain mn
in
humidity
%
barometer
mb
20260903034819 70 122 0.0 0.0 0.00 0.62 0.62 95 1018.9
20260903033814 70 122 0.0 0.0 0.00 0.62 0.62 95 1019.0
20260903032830 70 122 0.0 0.0 0.00 0.62 0.62 95 1019.0
20260903031817 70 122 0.0 0.0 0.00 0.62 0.62 95 1019.0
20260903030858 70 122 0.0 0.0 0.00 0.62 0.62 95 1019.1
20260903025826 70 122 0.0 0.0 0.00 0.62 0.62 95 1019.1
20260903024841 70 122 0.0 0.0 0.00 0.62 0.62 95 1019.0
20260903023856 70 122 0.0 0.0 0.00 0.62 0.62 94 1018.8
20260903022851 70 122 0.0 0.0 0.00 0.62 0.62 94 1018.8
20260903021827 71 122 0.0 0.0 0.00 0.62 0.62 94 1018.8
20260903020813 71 122 0.0 0.0 0.00 0.62 0.62 94 1019.0
20260903015832 71 122 0.0 0.0 0.00 0.62 0.62 94 1019.3
20260903014819 71 122 0.0 0.0 0.00 0.62 0.62 94 1019.2
20260903013814 71 122 0.0 0.0 0.00 0.62 0.62 94 1019.2
20260903012829 71 122 0.0 0.0 0.00 0.62 0.62 94 1019.0
20260903011825 71 122 0.0 0.0 0.00 0.62 0.62 94 1018.9
20260903010840 71 122 0.0 0.0 0.00 0.62 0.62 94 1018.7
20260903005829 71 122 0.0 0.0 0.00 0.62 0.62 93 1018.6
20260903004827 71 122 0.0 0.0 0.00 0.62 0.62 94 1018.8
20260903003842 71 122 0.0 0.0 0.00 0.62 0.62 93 1018.7
20260903002838 72 122 0.0 0.0 0.00 0.62 0.62 93 1018.7
20260903001824 72 122 0.0 0.0 0.00 0.62 0.62 93 1018.9
20260903000817 72 122 0.0 0.0 0.00 0.62 0.62 93 1018.6
20260902235855 72 122 0.0 0.0 0.00 0.62 0.62 93 1018.8
20260902234850 72 122 0.0 0.0 0.00 0.62 0.62 93 1019.1
20260902233844 73 122 0.0 0.0 0.00 0.62 0.62 92 1018.7
20260902232819 73 122 0.0 0.0 0.00 0.62 0.62 93 1018.9
20260902231831 73 122 0.0 0.0 0.00 0.62 0.62 92 1018.8
20260902230818 73 122 0.0 0.0 0.00 0.62 0.62 92 1018.8
20260902225838 73 122 0.0 0.0 0.00 0.62 0.62 92 1018.8
20260902224855 73 122 0.0 0.0 0.00 0.62 0.62 92 1018.8
20260902223820 73 122 0.0 0.0 0.00 0.62 0.62 92 1018.9
20260902222816 74 121 0.0 0.0 0.00 0.62 0.62 92 1018.6
20260902221832 74 122 0.0 0.0 0.00 0.62 0.62 93 1018.7
20260902220827 74 122 0.0 0.0 0.00 0.62 0.62 93 1019.0
20260902215817 74 121 0.0 0.0 0.00 0.62 0.62 93 1019.1
20260902214832 74 121 0.0 0.0 0.00 0.62 0.62 93 1019.1
20260902213828 74 121 0.0 0.0 0.00 0.62 0.62 94 1019.0
20260902212824 74 119 0.0 0.0 0.00 0.62 0.62 93 1019.1
20260902211839 74 118 0.0 0.0 0.00 0.62 0.62 93 1018.9
20260902210826 74 118 0.0 0.0 0.00 0.62 0.62 94 1018.8
20260902205844 74 119 0.0 0.0 0.00 0.62 0.62 94 1018.9
20260902204837 74 119 0.0 0.0 0.00 0.62 0.62 94 1019.2
20260902203825 74 102 0.0 0.0 0.00 0.62 0.62 95 1019.3
20260902202820 74 74 0.0 0.0 0.00 0.62 0.62 95 1019.5
20260902201816 74 70 0.0 2.0 0.00 0.62 0.62 95 1019.5
20260902200851 74 70 1.0 3.0 0.00 0.62 0.62 95 1019.2
20260902195818 73 70 0.0 5.0 0.00 0.62 0.62 95 1019.0
20260902194900 73 234 0.0 2.0 0.00 0.62 0.62 95 1018.6
20260902193827 73 235 1.0 4.0 0.00 0.62 0.62 95 1018.5
20260902192819 73 170 0.0 3.0 0.00 0.62 0.62 95 1018.8
20260902191814 72 186 0.0 0.0 0.00 0.62 0.62 95 1018.6
20260902190826 72 186 0.0 0.0 0.01 0.62 0.62 95 1018.9
20260902185816 72 163 0.0 0.0 0.04 0.62 0.62 95 1019.0
20260902184814 72 164 0.0 2.0 0.09 0.62 0.62 95 1019.4
20260902183829 71 163 2.0 3.0 0.13 0.62 0.62 95 1018.8
20260902182815 70 164 2.0 5.0 0.15 0.62 0.62 94 1019.0
20260902181831 70 163 4.0 5.0 0.17 0.62 0.62 94 1018.9
20260902180826 70 46 0.0 0.0 0.17 0.61 0.61 94 1019.5
20260902175816 70 22 0.0 0.0 0.14 0.57 0.57 94 1019.8
20260902174832 70 22 0.0 0.0 0.11 0.53 0.53 93 1020.4
20260902173820 70 21 0.0 4.0 0.16 0.49 0.49 93 1021.0
20260902172816 70 37 1.0 11.0 0.44 0.47 0.47 93 1021.5
20260902171832 69 28 5.0 11.0 0.42 0.45 0.45 92 1021.9
20260902170827 70 61 5.0 9.0 0.40 0.43 0.43 92 1022.2
20260902165819 70 45 3.0 10.0 0.40 0.43 0.43 91 1021.9
20260902164836 71 23 3.0 9.0 0.39 0.42 0.42 91 1021.9
20260902163825 73 124 5.0 10.0 0.30 0.33 0.33 90 1021.6
20260902162820 74 349 1.0 4.0 0.00 0.03 0.03 92 1022.1
20260902161816 74 116 0.0 0.0 0.00 0.03 0.03 92 1020.5
20260902160832 74 116 0.0 0.0 0.00 0.03 0.03 93 1020.4
20260902155821 73 116 0.0 0.0 0.00 0.04 0.03 93 1020.6
20260902154837 73 116 0.0 2.0 0.00 0.04 0.03 93 1020.5
20260902153834 74 115 2.0 3.0 0.00 0.04 0.03 94 1020.3
20260902152820 73 114 0.0 2.0 0.00 0.04 0.03 94 1020.2
20260902151816 73 114 0.0 2.0 0.00 0.04 0.03 94 1020.2
20260902150814 73 113 1.0 2.0 0.00 0.04 0.03 95 1020.3
20260902145826 73 111 1.0 2.0 0.00 0.04 0.03 95 1020.3
20260902144843 73 110 0.0 0.0 0.00 0.04 0.03 95 1020.4
20260902143839 72 110 0.0 0.0 0.00 0.04 0.03 95 1020.4
20260902142814 72 110 0.0 0.0 0.00 0.04 0.03 95 1020.5
20260902141830 72 109 0.0 0.0 0.00 0.04 0.03 95 1020.7
20260902140826 71 109 0.0 1.0 0.00 0.04 0.03 96 1020.7
20260902135851 71 109 1.0 1.0 0.00 0.04 0.03 95 1020.5
20260902134825 71 109 0.0 2.0 0.00 0.04 0.03 96 1020.5
20260902133821 71 109 1.0 2.0 0.00 0.04 0.03 95 1020.2
20260902132837 71 108 0.0 2.0 0.00 0.04 0.03 95 1020.1
20260902131824 70 107 1.0 3.0 0.00 0.04 0.03 95 1020.0
20260902130817 70 105 0.0 2.0 0.00 0.04 0.03 95 1019.9
20260902125825 70 82 0.0 0.0 0.00 0.04 0.03 95 1019.6
20260902124842 70 81 0.0 0.0 0.00 0.04 0.03 95 1019.8
20260902123814 71 17 0.0 0.0 0.00 0.04 0.03 95 1019.7
20260902122830 70 17 0.0 0.0 0.00 0.04 0.03 95 1019.7
20260902121827 70 17 0.0 0.0 0.00 0.04 0.03 95 1019.9
20260902120823 70 17 0.0 0.0 0.00 0.04 0.03 95 1019.6
20260902115832 70 17 0.0 0.0 0.00 0.04 0.03 95 1019.4
20260902114829 69 17 0.0 0.0 0.00 0.04 0.03 95 1019.3
20260902113817 69 16 0.0 0.0 0.00 0.04 0.03 95 1019.2
20260902112813 69 17 0.0 0.0 0.00 0.04 0.03 95 1019.3
20260902111831 69 17 0.0 0.0 0.00 0.04 0.03 95 1019.3
20260902110828 69 17 0.0 0.0 0.00 0.04 0.03 95 1019.1
20260902105817 69 17 0.0 0.0 0.00 0.04 0.03 95 1019.2
20260902104813 68 16 0.0 0.0 0.00 0.04 0.03 95 1019.3
20260902103829 68 17 0.0 0.0 0.00 0.04 0.03 95 1019.4
20260902102816 68 17 0.0 0.0 0.00 0.04 0.03 94 1019.4
20260902101832 68 16 0.0 0.0 0.00 0.04 0.03 94 1019.3
20260902100823 68 17 0.0 0.0 0.00 0.04 0.03 94 1019.2
20260902095832 68 16 0.0 0.0 0.00 0.04 0.03 94 1019.2
20260902094848 68 17 0.0 0.0 0.00 0.04 0.03 94 1019.1
20260902093823 69 17 0.0 0.0 0.00 0.04 0.03 94 1019.1
20260902092818 69 17 0.0 0.0 0.00 0.04 0.03 94 1019.0
20260902091834 69 17 0.0 0.0 0.00 0.04 0.03 94 1019.1
20260902090825 69 17 0.0 0.0 0.00 0.04 0.03 94 1018.9
20260902085813 69 17 0.0 0.0 0.00 0.04 0.03 94 1018.8
20260902084829 69 17 0.0 0.0 0.00 0.04 0.03 94 1019.0
20260902083825 69 17 0.0 0.0 0.00 0.04 0.03 94 1019.0
20260902082813 69 17 0.0 0.0 0.00 0.04 0.03 94 1018.9
20260902081858 70 17 0.0 0.0 0.00 0.04 0.03 94 1019.0
20260902080833 70 16 0.0 0.0 0.00 0.04 0.03 94 1018.9
20260902075814 69 17 0.0 0.0 0.00 0.04 0.03 94 1018.9
20260902074840 70 17 0.0 0.0 0.00 0.04 0.03 94 1018.8
20260902073856 70 17 0.0 0.0 0.00 0.04 0.03 93 1018.9
20260902072822 70 17 0.0 2.0 0.00 0.04 0.03 94 1018.8
20260902071818 70 16 0.0 0.0 0.00 0.04 0.03 94 1018.7
20260902070813 70 17 0.0 0.0 0.00 0.04 0.03 93 1018.6
20260902065842 70 16 0.0 0.0 0.00 0.04 0.03 93 1018.6
20260902064817 70 16 0.0 0.0 0.00 0.04 0.03 93 1018.5
20260902063832 71 16 0.0 2.0 0.00 0.04 0.03 93 1018.3
20260902062828 71 16 0.0 0.0 0.00 0.04 0.03 93 1018.4
20260902061824 71 16 0.0 0.0 0.00 0.04 0.03 93 1018.0
20260902060840 71 16 0.0 0.0 0.00 0.04 0.03 93 1017.9
20260902055827 71 16 0.0 0.0 0.01 0.04 0.03 93 1017.9
20260902054844 71 16 0.0 3.0 0.02 0.04 0.03 93 1017.8
20260902053819 71 12 2.0 11.0 0.03 0.04 0.03 92 1017.7
20260902052834 72 28 1.0 9.0 0.03 0.04 0.03 92 1017.6
20260902051821 72 57 0.0 0.0 0.03 0.04 0.03 91 1017.2
20260902050816 72 57 0.0 0.0 0.03 0.04 0.03 91 1017.5
20260902045821 72 56 0.0 0.0 0.02 0.03 0.02 91 1018.1
20260902044817 72 56 0.0 5.0 0.01 0.02 0.01 90 1018.4
20260902043814 73 71 2.0 7.0 0.00 0.01 0.00 90 1018.8
20260902042830 73 32 4.0 9.0 0.00 0.01 0.00 89 1019.0
20260902041826 73 5 4.0 17.0 0.00 0.01 0.00 89 1018.9
20260902040841 74 355 6.0 12.0 0.00 0.01 0.00 89 1018.6
20260902035831 74 32 5.0 12.0 0.00 0.02 0.01 88 1018.4